Overview Statistics Trail Chart Weather Telemetry Raw packets
 

This is the latest recevied weather packets stored in our database for station/object DF7ER-12. If no packets are shown the sender has not sent any weather packets the latest 10 day(s).

<< 21 22 23 24 25 26 27 >>
Time Temp. Humidity Pressure Rain* Wind** Luminosity Snow
1788525365 23.89° C 100% 995.6 hPa - - - -
1788525065 23.89° C 98% 995.4 hPa - - - -
1788524765 24.44° C 95% 995.1 hPa - - - -
1788524465 25° C 89% 994.9 hPa - - - -
1788524165 24.44° C 89% 994.7 hPa - - - -
1788523865 25° C 86% 994.6 hPa - - - -
1788523565 25° C 85% 994.5 hPa - - - -
1788523265 25° C 85% 994.4 hPa - - - -
1788522965 25° C 85% 994.3 hPa - - - -
1788522665 25° C 86% 994.6 hPa - - - -
1788522365 25.56° C 85% 994.5 hPa - - - -
1788522065 25° C 86% 994.5 hPa - - - -
1788521765 25.56° C 85% 994.7 hPa - - - -
1788521465 25° C 86% 994.7 hPa - - - -
1788521165 24.44° C 87% 994.9 hPa - - - -
1788520865 24.44° C 88% 994.9 hPa - - - -
1788520565 25.56° C 85% 995 hPa - - - -
1788520265 25° C 87% 995 hPa - - - -
1788519965 25.56° C 86% 994.9 hPa - - - -
1788519665 25.56° C 86% 995.2 hPa - - - -
1788519365 25° C 89% 995.3 hPa - - - -
1788519082 24.44° C 90% 995.5 hPa - - - -
1788518767 23.89° C 92% 995.6 hPa - - - -
1788518465 24.44° C 89% 995.9 hPa - - - -
1788518165 23.89° C 92% 995.9 hPa - - - -

* Rain since midnight (hover to see other rain measurements)
** Current wind speed in m/s (hover to see current wind gust speed)